PKC103 UHPK-UHPT

Flight info

Callsign PKC103
Flight time N/A
Altitude 23000
Route TUPAN4L TUPAN B244 TK
Aircraft YK40/M-SDFIRWY/H

Departure

Time 2026-04-28 13:30
Airport Ust'-Kamchatsk Airport (UHPK)

Arrival

Time N/A
Airport Tilichiki Airport (UHPT)
Time Latitude Longitude Altitude Speed Heading
2026-04-28 13:10 56.23809 162.69360 59 ft 0 kts 93°
2026-04-28 13:14 56.23809 162.69362 59 ft 0 kts 93°
2026-04-28 13:15 56.23809 162.69360 59 ft 0 kts 93°
2026-04-28 13:16 56.23809 162.69362 59 ft 0 kts 93°
2026-04-28 13:17 56.23809 162.69360 59 ft 0 kts 93°
2026-04-28 13:20 56.23809 162.69362 59 ft 0 kts 93°
2026-04-28 13:21 56.23809 162.69360 59 ft 0 kts 93°
2026-04-28 13:23 56.23809 162.69362 59 ft 0 kts 93°
2026-04-28 13:26 56.23809 162.69368 59 ft 3 kts 92°
2026-04-28 13:26 56.23866 162.69376 57 ft 17 kts 289°
2026-04-28 13:26 56.23876 162.69138 53 ft 19 kts 275°
2026-04-28 13:27 56.23824 162.68988 52 ft 15 kts 182°
2026-04-28 13:27 56.23732 162.68980 52 ft 11 kts 185°
2026-04-28 13:27 56.23663 162.68968 53 ft 11 kts 185°
2026-04-28 13:27 56.23553 162.68950 54 ft 20 kts 185°
2026-04-28 13:28 56.23410 162.68927 56 ft 19 kts 186°
2026-04-28 13:28 56.23312 162.68916 57 ft 5 kts 67°
2026-04-28 13:28 56.23339 162.68919 57 ft 0 kts
2026-04-28 13:29 56.23346 162.68919 57 ft 11 kts
2026-04-28 13:29 56.23655 162.68967 53 ft 76 kts
2026-04-28 13:29 56.24355 162.69089 87 ft 119 kts
2026-04-28 13:29 56.25174 162.69470 430 ft 128 kts 21°
2026-04-28 13:30 56.25981 162.70123 1011 ft 126 kts 25°
2026-04-28 13:30 56.26797 162.70731 1469 ft 138 kts 20°
2026-04-28 13:30 56.27731 162.71388 2010 ft 147 kts 22°
2026-04-28 13:30 56.28604 162.72089 2766 ft 140 kts 22°
2026-04-28 13:31 56.30023 162.72795 3618 ft 146 kts 13°